Flag for Russia Weather past 2 weeks in Volgograd, Russia

Now
57 °F

Sunny.


Feels Like: 53 °F
Forecast: 37 / 49 °F
Wind: 20 mph from Northwest

Location: Volgograd Airport

Current Time: Oct 1, 2014 at 5:03:16 PM

Latest Report: Oct 1, 2014 at 4:30 PM


Visibility: 10 mi

Pressure: 29.92 "Hg

Humidity: 39%

Dew point: 32 °F

Location of VolgogradLocation

Historic Weather in Volgograd — Graph

°F

Volgograd temperature yesterday

Maximum temperature yesterday: 63 °F (at 11:30 AM)
Minimum temperature yesterday: 41 °F (at 4:30 AM)
Average temperature yesterday: 55 °F

Past Weeks' High & Low Weather Summary

 TemperatureHumidityPressure
High77 °F (Sep 16, 3:00 PM)100% (Sep 25, 10:30 AM)30.45 "Hg (Sep 25, 10:30 AM)
Low37 °F (Sep 26, 7:00 AM)22% (Sep 21, 2:30 PM)29.59 "Hg (Sep 24, 7:30 AM)
Average55 °F54%30.05 "Hg
* Reported Sep 16 3:00 PM — Oct 1 3:30 PM, Volgograd, Weather by CustomWeather, © 2014

Note: Actual official high and low records may vary slightly from our data, if they occured in-between our weather recording intervals... More about our weather records

Advertising

Volgograd weather history for previous 24 hours

 ConditionsComfort  
Time TempWeatherWind HumidityBarometerVisibility
3:30 PM
Oct 1
59 °FSunny.17 mph34%29.92 "Hg10 mi
3:00 PM59 °FSunny.17 mph34%29.89 "Hg10 mi
2:30 PM57 °FSunny.15 mph36%29.89 "Hg10 mi
2:00 PM59 °FSunny.17 mph36%29.89 "Hg10 mi
1:30 PM57 °FSunny.17 mph39%29.89 "Hg10 mi
1:00 PM59 °FSunny.17 mph36%29.89 "Hg10 mi
12:30 PM57 °FPassing clouds.15 mph48%29.89 "HgN/A
12:00 PM61 °FSunny.13 mph42%29.89 "Hg10 mi
11:30 AM57 °FSunny.13 mph51%29.89 "Hg10 mi
11:00 AM55 °FPassing clouds.10 mph63%29.89 "HgN/A
10:30 AM55 °FSunny.8 mph63%29.92 "Hg10 mi
10:00 AM55 °FSunny.10 mph63%29.89 "Hg10 mi
9:30 AM55 °FSunny.13 mph63%29.89 "Hg10 mi
9:00 AM54 °FSunny.10 mph67%29.89 "Hg10 mi
8:30 AM54 °FSunny.8 mph72%29.89 "Hg10 mi
8:00 AM54 °FScattered clouds.6 mph67%29.89 "HgN/A
7:30 AM54 °FScattered clouds.6 mph72%29.89 "HgN/A
6:30 AM55 °FPassing clouds.6 mph67%29.86 "HgN/A
6:00 AM55 °FClear.6 mph72%29.86 "Hg10 mi
5:30 AM57 °FClear.6 mph67%29.86 "Hg10 mi
5:00 AM57 °FClear.8 mph67%29.86 "Hg10 mi
4:30 AM57 °FClear.10 mph67%29.86 "Hg10 mi
4:00 AM57 °FClear.13 mph67%29.86 "Hg10 mi
3:30 AM57 °FClear.10 mph63%29.89 "Hg10 mi
3:00 AM57 °FClear.10 mph63%29.89 "Hg10 mi
2:30 AM57 °FClear.13 mph63%29.89 "Hg10 mi
2:00 AM57 °FClear.15 mph63%29.89 "Hg10 mi
1:30 AM59 °FClear.15 mph59%29.89 "Hg10 mi
12:30 AM59 °FClear.15 mph55%29.92 "Hg10 mi
12:00 AM59 °FClear.10 mph55%29.92 "Hg10 mi
11:30 PM
Sep 30
59 °FClear.13 mph51%29.95 "Hg10 mi
11:00 PM59 °FClear.10 mph51%29.95 "Hg10 mi
10:30 PM59 °FClear.10 mph51%29.95 "Hg10 mi
10:00 PM59 °FClear.13 mph51%29.98 "Hg10 mi
9:30 PM61 °FClear.13 mph48%29.98 "Hg10 mi
9:00 PM61 °FClear.10 mph48%29.98 "Hg10 mi
8:30 PM61 °FClear.10 mph48%29.98 "Hg10 mi
8:00 PM61 °FClear.8 mph48%29.98 "Hg10 mi
7:30 PM61 °FClear.10 mph48%29.98 "Hg10 mi
7:00 PM61 °FClear.10 mph48%29.98 "Hg10 mi
6:30 PM61 °FSunny.13 mph45%29.98 "Hg10 mi
6:00 PM63 °FSunny.13 mph42%29.98 "Hg10 mi
5:30 PM63 °FSunny.15 mph39%29.98 "Hg10 mi
5:00 PM63 °FSunny.17 mph39%30.01 "Hg10 mi
Weather by CustomWeather, © 2014

See weather overviewHow to use our weather pages